Location: Burgerwiesen
(48.6500°N, 15.6167°E)
Time: 12:50:25
(UTC+00:00)

CARTOSAT-1 - Pass Details

Date: 09 April 2020
Orbit: 616 x 619 km, 97.8° (Epoch: 28 May)

Event Time Altitude Azimuth Distance (km) Brightness Sun altitude
Exits shadow 20:39:35 72° 305° (NW) 655 3.7 -25.6°
Drops below altitude 10° 20:43:36 10° 344° (NNW) 1,997 7.0 -26.0°
Sets 20:45:49 0° 346° (NNW) 2,909 8.1 -26.3°
